星链-5232 (STARLINK-5232 )

导读

STARLINK-5232是由美国发射的星链系列卫星,于2023年2月17日8时成功发射。它隶属于SpaceX公司的星链星座项目,该项目旨在构建全球卫星互联网星座,为全球用户提供低延迟、高速率的宽带互联网服务,此卫星进一步扩充了星链星座的在轨卫星规模,助力提升全球覆盖范围与服务能力。

基本信息
目录编号:
55675
目录名称:
STARLINK-5232
国际标识:
2023-021AZ
轨道中心:
EARTH
卫星名称:
星链-5232
卫星全名:
星链-5232 (STARLINK-5232 )
卫星状态:
在轨 (已飞行1214 天)
发射日期:
2023-02-17 UTC
国别 :
美国 (US)
星等 :
--
轨道信息
数据来源 国际轨道数据
星历时间: 2026-06-14T23:42:01+0800
14小时前
查看轨道信息
半长轴: 6950.194km
偏心率: 0.0003193
轨道倾角: 69.999°
近地点辐角 269.782°
升交点赤经 279.779°
平近点角 90.297°
近地点: 569.837km
远地点: 574.277km
周期: 96.107分钟
每日圈数: 14.983297
详细信息
固有亮度:
5
最大亮度:
2.5
卫星平台:
Starlink v1.5
覆盖范围:
全球
运营商:
太空探索技术公司
运营商所在国:
美国
制造商(研发单位):
太空探索技术公司
制造商所在国:
美国
使用方式:
暂无
卫星简介
星链(Starlink)计划是由太空探索技术公司(SpaceX)提出的一个巨型低轨卫星互联网星座项目,计划在2019年至2024年间在太空搭建由约1.2万颗卫星组成的“星链”网络,其中1584颗将部署在地球上空550千米处的近地轨道,并从2020年开始工作。该卫星仍在工作。
2D轨道图
3D轨道图
轨道高度分析图
轨道倾角分析图
轨道综合分析图
查看轨道综合分析图